Find Starlink 32923

NORAD ID: 63097 Int'l Des: 2025-037 Owner: SPXS Country: US Constellation: starlink operational
LEOCIRCULAR

当前视图

正在加载3D地球...

About Starlink 32923

Starlink 32923 (NORAD 63097) is a starlink constellation satellite (v2 mini) launched Feb 23, 2025 by SPXS of US. It operates in LEO, CIRCULAR orbit with a mass of 730.00 kg.

关于 Starlink 32923

正在加载描述...

即将过境

Passes for default location (London). Set your location on the main map for personalized predictions.

高度历史

Loading altitude history...

两行轨道根数

1 63097U 25037W 26167.54861260 .00005389 00000-0 45902-3 0 9994
2 63097 70.0013 105.0585 0002789 267.3099 92.7741 14.98334568 73410
Epoch: Jun 16, 2026 • Age: 8 hours

当前状态

高度 587.6 km
速度 7.57 km/s
星下点 -45.32°S, 136.77°W
发射日期 Feb 23, 2025
运行时间 1.3 years
类型 internet

技术详情

分类 Payload
质量 730.00 kg
干质量 700.00 kg
总质量 730.00 kg
长度 0.30 m
直径 4.10 m
跨度 29.00 m
形状 Box + pan
制造商 SPXS
平台类型 Starlink V2M
阶段状态 In Orbit
所有者/国家 SPXS/US

Most Searched